Estación meteorológica de Cercs - La Baells (Berguedà, Cercs)

Consulta los datos en tiempo real de la estación meteorológica de Cercs - La Baells





Hora UTC 08:15
Temperatura 13.7 ºC
Humedad 64.1 %
Presión 1013.2 hPa
Pluja 0.0 mm
Velocidad viento 1.0 km/h
Dirección viento ENE

Datos diarios 2026-05-07



Hora UTC (invierno +1h; verano +2h)
DADES NO VALIDADES
Temperatura (ºC) Humedad (%) Presión (hPa) Velocidad viento (km/h) Precipitación (mm)
Hora UTC Aire Humedad Presión Vel. Dir. Vel. Max Dir. Intent. máx 5 min.
00:05 10.3 81.3 1013.2 0.2 NNW 0.3 NNW 0.0
00:10 10.0 82.5 1013.2 0.2 NNW 0.3 NNW 0.0
00:15 10.0 82.8 1013.2 0.2 NNW 0.3 NNW 0.0
00:20 9.8 84.5 1013.2 0.2 NW 0.3 NNW 0.0
00:25 9.8 85.0 1013.2 0.2 NW 0.3 NNW 0.0
00:30 9.8 83.6 1013.2 0.1 WSW 0.3 NNW 0.0
00:35 9.8 83.2 1013.2 0.1 SW 0.3 NNW 0.0
00:40 9.9 82.3 1012.4 0.1 SSW 0.3 NNW 0.0
00:45 9.9 82.1 1012.2 0.1 S 0.3 NNW 0.0
00:50 9.9 80.4 1012.2 0.1 S 0.3 NNW 0.0
00:55 10.0 79.9 1012.2 0.2 S 0.3 NNW 0.0
01:00 10.0 82.1 1012.2 0.1 S 0.3 NNW 0.0
01:05 10.1 82.7 1012.2 0.1 S 0.3 NNW 0.0
01:10 10.0 83.5 1012.2 0.1 SSE 0.3 NNW 0.0
01:15 10.0 83.7 1012.2 0.1 SSE 0.3 NNW 0.0
01:20 10.0 83.7 1012.2 0.1 S 0.3 NNW 0.0
01:25 10.0 83.7 1012.2 0.1 SSW 0.3 NNW 0.0
01:30 9.9 83.8 1012.2 0.1 S 0.3 NNW 0.0
01:35 9.8 83.8 1012.2 0.1 S 0.3 NNW 0.0
01:40 9.7 84.4 1012.2 0.1 S 0.3 NNW 0.0
01:45 9.7 84.6 1012.2 0.1 S 0.3 NNW 0.0
01:50 9.6 85.9 1012.2 0.1 NE 0.3 NNW 0.0
01:55 9.6 86.2 1012.2 0.1 N 0.3 NNW 0.0
01:55 9.6 86.2 1012.2 0.1 N 0.3 NNW 0.0
02:10 9.6 87.1 1012.2 0.1 SW 0.3 NNW 0.0
02:15 9.3 87.3 1012.2 0.1 SSW 0.3 NNW 0.0
02:20 9.1 88.2 1012.2 0.6 W 0.6 W 0.0
02:25 9.0 88.5 1012.2 0.7 WNW 0.7 WNW 0.0
02:30 8.7 89.3 1012.2 0.4 NW 0.7 WNW 0.0
02:35 8.7 89.5 1012.2 0.3 NW 0.7 WNW 0.0
02:40 8.7 90.7 1012.2 0.8 NNW 0.8 NNW 0.0
02:45 8.7 91.1 1012.2 1.0 NNW 1.0 NNW 0.0
02:50 8.8 92.4 1012.2 0.3 SSW 1.0 NNW 0.0
02:55 8.8 92.7 1012.2 0.1 S 1.0 NNW 0.0
03:00 8.8 92.2 1012.2 0.1 S 1.0 NNW 0.0
03:05 8.8 92.1 1012.2 0.1 S 1.0 NNW 0.0
03:10 8.7 91.8 1012.2 0.0 SSW 1.0 NNW 0.0
03:15 8.6 91.7 1012.2 0.0 SSW 1.0 NNW 0.0
03:20 8.4 92.3 1012.2 0.1 E 1.0 NNW 0.0
03:25 8.3 92.5 1012.2 0.1 NE 1.0 NNW 0.0
03:30 8.2 92.8 1012.2 0.0 WSW 1.0 NNW 0.0
03:35 8.1 92.9 1012.2 0.0 NW 1.0 NNW 0.0
03:40 8.0 92.8 1012.2 0.1 SW 1.0 NNW 0.0
03:45 7.9 92.8 1012.2 0.1 S 1.0 NNW 0.0
03:50 7.9 93.1 1012.2 0.1 SE 1.0 NNW 0.0
03:55 7.9 93.2 1012.2 0.1 SE 1.0 NNW 0.0
04:00 7.8 93.3 1012.2 0.1 E 1.0 NNW 0.0
04:05 7.7 93.4 1012.2 0.1 ENE 1.0 NNW 0.0
04:10 7.7 93.9 1012.2 0.0 E 1.0 NNW 0.0
04:15 7.7 94.0 1012.2 0.0 ESE 1.0 NNW 0.0
04:20 7.5 94.1 1012.2 0.1 SE 1.0 NNW 0.0
04:25 7.4 94.1 1012.2 0.1 SE 1.0 NNW 0.0
04:30 7.3 94.1 1012.2 0.1 SSE 1.0 NNW 0.0
04:35 7.3 94.1 1012.2 0.1 SSE 1.0 NNW 0.0
04:40 7.2 94.2 1012.2 0.1 E 1.0 NNW 0.0
04:45 7.2 94.2 1012.2 0.1 NE 1.0 NNW 0.0
04:50 7.2 94.4 1012.2 0.2 S 1.0 NNW 0.0
04:55 7.2 94.4 1012.2 0.2 SSW 1.0 NNW 0.0
05:00 7.1 94.3 1012.2 0.1 S 1.0 NNW 0.0
05:05 7.0 94.2 1012.2 0.1 S 1.0 NNW 0.0
05:10 7.1 94.4 1012.2 0.1 E 1.0 NNW 0.0
05:15 7.1 94.5 1012.2 0.1 E 1.0 NNW 0.0
05:20 7.0 94.7 1012.2 0.1 ENE 1.0 NNW 0.0
05:25 7.0 94.8 1012.2 0.1 ENE 1.0 NNW 0.0
05:30 7.2 94.6 1012.2 0.1 E 1.0 NNW 0.0
05:35 7.2 94.5 1012.2 0.1 E 1.0 NNW 0.0
05:40 7.2 93.4 1012.2 0.1 NE 1.0 NNW 0.0
05:45 7.1 92.8 1012.2 0.1 NNE 1.0 NNW 0.0
05:50 7.2 92.4 1012.2 0.0 NE 1.0 NNW 0.0
05:55 7.2 92.3 1012.2 0.0 NE 1.0 NNW 0.0
06:00 7.5 91.1 1012.2 0.0 NNE 1.0 NNW 0.0
06:00 7.5 91.1 1012.2 0.0 NNE 1.0 NNW 0.0
06:10 7.6 89.6 1012.2 0.1 N 1.0 NNW 0.0
06:15 7.7 89.4 1012.2 0.1 N 1.0 NNW 0.0
06:20 7.8 88.9 1012.2 0.1 N 1.0 NNW 0.0
06:25 7.8 88.6 1012.2 0.1 N 1.0 NNW 0.0
06:30 8.1 87.3 1012.2 0.1 SE 1.0 NNW 0.0
06:35 8.1 86.9 1012.2 0.1 SSE 1.0 NNW 0.0
06:40 8.4 85.9 1012.2 0.1 S 1.0 NNW 0.0
06:45 8.6 85.3 1012.2 0.2 SSW 1.0 NNW 0.0
06:50 9.0 84.4 1012.2 0.1 WSW 1.0 NNW 0.0
06:55 9.2 84.1 1012.2 0.1 WSW 1.0 NNW 0.0
07:00 9.5 82.0 1012.2 0.6 NW 1.0 NNW 0.0
07:05 9.6 81.4 1012.2 0.7 NNW 1.0 NNW 0.0
07:10 10.3 78.7 1012.2 0.4 NNW 1.0 NNW 0.0
07:15 10.5 77.9 1012.2 0.3 NNW 1.0 NNW 0.0
07:20 11.3 74.6 1012.2 0.6 NNW 1.0 NNW 0.0
07:25 11.5 73.7 1012.2 0.7 NNW 1.0 NNW 0.0
07:30 12.0 70.8 1012.2 0.4 NNW 1.0 NNW 0.0
07:35 12.2 70.0 1012.2 0.3 NNW 1.0 NNW 0.0
07:40 12.5 68.0 1012.2 0.2 NNW 1.0 NNW 0.0
07:45 12.6 67.4 1012.2 0.1 N 1.0 NNW 0.0
07:50 13.0 66.4 1013.0 0.1 SW 1.0 NNW 0.0
07:55 13.1 66.1 1013.2 0.1 S 1.0 NNW 0.0
08:00 13.0 65.8 1012.4 0.1 NW 1.0 NNW 0.0
08:05 13.0 65.8 1012.2 0.1 N 1.0 NNW 0.0
08:10 13.5 64.5 1013.0 0.8 SE 1.0 NNW 0.0
08:15 13.7 64.1 1013.2 1.0 ENE 1.0 ENE 0.0
Máxima 13.7 94.8 1013.2 1.0 ENE 1.0 ENE 0.0
Mínima 7.0 64.1 1012.2
Total 0.0